www.pogodaiklimat.ru

АРХИВ ПОГОДЫ в Сиэтле

Время (UTC), дата Ветер
(напр.,м/с)
 
Видим.   Явления Облачность Т
(С)
Тd
(С)
f
(%)
Тe
(С)
Тes
(С)
Комфортность

P
(гПа)

Po
(гПа)
Тmin
(С)
Tmax
(С)
R
(мм)
SD
(см)
00:53 27.09 С  16 км    2/0 м
[верхняя] 
+18.0  +10.0  59  +18  +18    1021.2  1004.9  +15.0  +21.1  0.3   
01:53 27.09 С  16 км    ясно  +17.8  +10.6  63  +18  +18    1021.0  1004.9  +15.0  +21.1  0.3   
02:53 27.09 С  16 км    ясно  +17.0  +11.0  68  +16  +16    1021.1  1004.9  +15.0  +21.1  0.3   
03:53 27.09 СВ  16 км    ясно  +17.0  +11.0  68  +16  +16    1020.9  1004.6  +15.0  +21.1  0.3   
04:53 27.09 СЗ  16 км    ясно  +15.0  +10.6  75  +14  +14    1021.3  1004.9  +15.0  +21.1  0.3   
05:53 27.09 СЗ  16 км    2/0 м
[верхняя] 
+14.0  +11.0  82  +13  +13    1020.9  1004.6  +11.1  +15.6  0.3   
06:53 27.09 С  16 км  слабый дождь  ясно  +13.9  +9.4  74  +12  +12    1021.1  1004.9  +11.1  +15.6  0.3   
07:53 27.09 С  16 км  слабый дождь  ясно  +12.8  +8.9  77  +11  +11    1020.7  1004.6  +11.1  +15.6  0.3   
08:53 27.09 С  16 км  слабый дождь  ясно  +13.0  +9.0  77  +13  +13    1020.7  1004.6  +11.1  +15.6  0.3   
09:53 27.09 С  16 км  слабый дождь  ясно  +12.0  +9.0  82  +11  +11    1020.2  1003.9  +11.1  +15.6  0.3   
10:53 27.09 СВ  16 км  слабый дождь  ясно  +12.2  +10.0  86  +11  +11    1019.6  1003.2  +11.1  +15.6  0.3   
11:53 27.09 С  16 км  слабый дождь  ясно  +12.0  +10.0  88  +9  +9    1019.4  1003.2  +11.1  +17.8  0.3   
13:29 27.09 С  13 км  слабый дождь  5/2 м
[верхняя] 
+12.0  +10.0  88  +10  +10    1019.3  1002.9  +11.1  +17.8  0.3   
14:53 27.09 С  16 км  слабый дождь, дымка  5/2 м
[верхняя] 
+14.0  +11.0  82  +12  +12    1019.3  1003.2  +11.1  +17.8  0.3   
15:53 27.09 С  16 км  слабый дождь, дымка  5/2 м
[верхняя] 
+16.0  +11.0  72  +14  +15    1019.1  1002.9  +11.1  +17.8  0.3   
16:53 27.09 С  16 км  слабый дождь  5/2 м
[верхняя] 
+17.8  +11.1  65  +17  +18    1019.0  1002.9  +11.1  +17.8  0.3   
17:53 27.09 С  16 км  слабый дождь  2/0 м
[верхняя] 
+19.0  +12.0  64  +19  +20    1018.5  1002.2  +17.8  +22.8  0.3   
18:53 27.09 С  16 км  слабый дождь  2/0 м
[верхняя] 
+21.0  +12.0  56  +23  +25  комфорт  1017.7  1001.6  +17.8  +22.8  0.3   
19:53 27.09 С  16 км    2/0 м
[верхняя] 
+22.2  +11.1  49  +24  +26  комфорт  1017.1  1000.9  +17.8  +22.8  0.3   
20:53 27.09 С  16 км  слабый дождь  2/0 м
[верхняя] 
+22.0  +12.0  53  +24  +26  комфорт  1016.3  1000.2  +17.8  +22.8  0.3   
21:53 27.09 С  16 км    2/0 м
[верхняя] 
+22.0  +12.0  53  +24  +26  комфорт  1015.9  999.6  +17.8  +22.8  0.3   
22:53 27.09 С  16 км    2/0 м
[верхняя] 
+22.2  +11.1  49  +24  +26  комфорт  1015.1  998.9  +17.8  +22.8  0.3   
23:53 27.09 СЗ  16 км    2/0 м
[верхняя] 
+22.0  +11.0  50  +24  +25  комфорт  1014.5  998.2  +16.1  +22.2  0.3   
00:53 28.09 С  16 км    2/0 м
[верхняя] 
+20.0  +11.0  56  +21  +21  комфорт  1014.3  998.2  +16.1  +22.2  0.3   
01:53 28.09 С  16 км    2/0 м
[верхняя] 
+18.9  +10.6  59  +19  +19    1014.3  998.2  +16.1  +22.2  0.3   
02:53 28.09 С  16 км    ясно  +18.0  +11.0  64  +17  +17    1014.4  998.2  +16.1  +22.2  0.3   
03:53 28.09 С  16 км    ясно  +17.0  +11.0  68  +16  +16    1014.3  998.2  +16.1  +22.2  0.3   
04:53 28.09 С  16 км    ясно  +16.1  +10.6  70  +15  +15    1014.2  998.2  +16.1  +22.2  0.3   
05:53 28.09 С  16 км    ясно  +16.0  +11.0  72  +15  +15    1014.0  997.9  +13.9  +16.7  0.3   
06:53 28.09 СВ  16 км    ясно  +15.6  +10.6  72  +14  +14    1013.9  997.9  +13.9  +16.7  0.3   
07:53 28.09 СВ  16 км    ясно  +15.0  +10.6  75  +14  +14    1013.9  997.9  +13.9  +16.7  0.3   
08:53 28.09 СВ  16 км    ясно  +14.0  +11.0  82  +12  +12    1013.4  997.2  +13.9  +16.7  0.3   
09:53 28.09 С  16 км    ясно  +14.0  +11.0  82  +12  +12    1013.1  996.9  +13.9  +16.7  0.3   
10:53 28.09 С  16 км    ясно  +13.9  +11.1  83  +12  +12    1012.7  996.6  +13.9  +16.7  0.3   
11:53 28.09 СВ  16 км    ясно  +14.0  +11.0  82  +11  +11    1012.6  996.6  +13.9  +20.6  0.3   
12:53 28.09 СВ  16 км    2/0 м
[средняя] 
+14.0  +11.0  82  +11  +11    1012.8  996.6  +13.9  +20.6  0.3   
13:53 28.09 СВ  16 км    2/0 м
[средняя] 
+15.0  +10.6  75  +13  +13    1013.0  996.9  +13.9  +20.6  0.3   
14:53 28.09 С  16 км    2/0 м
[средняя] 
+17.0  +10.0  63  +16  +16    1012.9  996.9  +13.9  +20.6  0.3   
15:53 28.09 С  16 км    2/0 м
[средняя] 
+18.0  +10.0  59  +17  +17    1012.5  996.6  +13.9  +20.6  0.3   
16:53 28.09 С  16 км    2/0 м
[средняя] 
+20.0  +10.0  53  +21  +21  комфорт  1011.9  995.9  +13.9  +20.6  0.3   
17:53 28.09 С  16 км    ясно  +23.0  +11.0  47  +25  +26  комфорт  1011.2  995.2  +20.0  +26.1  0.3   
18:53 28.09 С  16 км    ясно  +24.0  +11.0  44  +25  +28  комфорт  1010.6  994.6  +20.0  +26.1  0.3   
19:53 28.09 С  16 км    ясно  +24.4  +10.6  42  +26  +27  жарко  1009.7  993.9  +20.0  +26.1  0.3   
20:53 28.09 С  16 км    ясно  +25.0  +10.0  39  +26  +28  жарко  1009.0  993.2  +20.0  +26.1  0.3   
21:53 28.09 С  16 км    ясно  +26.0  +10.0  37  +27  +28  жарко  1008.7  992.9  +20.0  +26.1  0.3   
22:53 28.09 С  16 км    ясно  +25.0  +10.0  39  +26  +27  жарко  1008.1  992.2  +20.0  +26.1  0.3   
23:53 28.09 С  16 км    ясно  +23.0  +9.0  41  +24  +25  комфорт  1007.8  991.9  +17.2  +25.0  0.3   
00:53 29.09 С  16 км    ясно  +20.0  +9.0  49  +21  +21  комфорт  1007.4  991.6  +17.2  +25.0  0.3   

 

Местоположение метеостанции Seattle-Tacoma International Airport: широта 47.4447 долгота -122.3136 высота над уровнем моря 130 м.

В архиве по умолчанию представлена погода в Сиэтле за последние 1-2 суток. Обновление информации о фактической погоде в базе происходит ежечасно! Архивные данные за месяц целиком и за предыдущие месяцы Вы можете получить, выбрав интересующий диапазон дат из раскрывающегося списка и нажав кнопку "Ввод!".

Внимание! Архив погоды МЕТАР в базе сайта в настоящее время начинается c 1 января 2013 г. Нет смысла пытаться выбрать более раннюю дату.

Внимание! Время в таблицах - всемирное. Для получения местного времени необходимо прибавить поправку, которая в Сиэтле равна -8 ч.

Ветер - указаны скорость ветра в м/с и направление, откуда дует ветер: С - северный, СВ - северо-восточный, В - восточный, ЮВ - юго-восточный, Ю - южный, ЮЗ - юго-западный, З - западный, СЗ - северо-западный.
Видимость - горизонтальная дальность видимости в метрах или километрах. При видимости от 1 до 10 км при отсутствии осадков обычно наблюдается дымка, при ухудшении видимости до 1 км и менее - туман. В сухую погоду видимость может ухудшаться дымом, пылью или мглою.
Атмосферные явления - указаны явления, наблюдавшиеся в указанный момент времени.
Облачность - указаны через наклонную черту верхняя и нижняя облачность в баллах и высота нижней границы облаков в метрах. Внимание: облачность, как и прочие метеорологические величины в США измеряются автоматическими метеостанциями. Указанные значения в баллах носят условный характер и показывают процент времени, в течение которого, в среднем, лазерный луч высотомера отражался от облаков обратно.
T - Температура воздуха - температура, измеренная на высоте 2 м над землей.
Td - Температура точки росы - температура, при понижении до которой содержащийся в воздухе водяной пар достигнет насыщения.
f - Относительная влажность воздуха - влажноcть воздуха, измеренная на высоте 2 м над землей.
Te - Эффективная температура - температура, которую ощущает одетый по сезону человек в тени. Характеристика душности погоды. При расчете учитывается влияние влажности воздуха и скорости ветра на теплоощущения человека.
Tes - Эффективная температура на солнце - температура, которую ощущает человек, с поправкой на солнечный нагрев. Характеристика знойности погоды. Зависит от высоты солнца над горизонтом, облачности и скорости ветра. Ночью, в пасмурную погоду, а также при ветре 12 м/с и более поправка равна нулю.
P - Атмосферное давление - приведенное к уровню моря атмосферное давление.
Po - Атмосферное давление - измеренное на уровне метеостанции атмосферное давление.
Tmin - Минимальная температура - минимум температуры воздуха на высоте 2 м над землей.
Tmax - Максимальная температура - максимум температуры воздуха на высоте 2 м над землей.
R - Количество осадков - Количество выпавших осадков за 3 или 6 часов, мм.
SD - Снежный покров - Высота снежного покрова, см.